Content
SEND FEEDBACK

Daily
Averages
Monthly
Summary
United States of America

PUT IN BAY, OHIO


Home > North America > United States > Ohio
Elevation: 561 feet     Latitude: 41 39N     Longitude: 082 48W

WEATHER
 
SELECT A DAY
Number of Records: 123,053;   Date Range: 12/10/00 - 9/17/14
 
SHARE

PRINT THIS DATA

[ ← Previous Day ]
WEATHER ALMANAC - DECEMBER 17, 2013
[ Next Day → ]
[ °C ]   °F
Weather ElementAverageHighLow
Temperature22 °F25.2 °F (9:00 pm)14.7 °F (6:00 am)
Dewpoint19.3 °F22.6 °F (4:00 pm)12.6 °F (6:00 am)
Humidity89.1 %96 % (1:00 pm)81 % (7:00 pm)
Barometer29.98 in30.03 in (8:00 am)29.93 in (2:00 pm)
Wind Speed10.2 mph16.1 mph (3:00 pm)
Wind Gust21.9 mph (3:00 pm)
Weather ElementAverage
Wind DirectionWSW (245.9 °)

Weather ElementTotal
Precipitation0.05 in
Heating Degree Days45.1 (Base 65)
Averaged from 27 records on December 17, 2013
WEATHER CONDITIONS BREAKOUT
WIND DIRECTION BREAKOUT
WEATHER BY HOUR - DECEMBER 17, 2013
[ °C ]   °F
Local TimeTemperatureDewpointHumidityBarometerVisibilityWind DirectionWind SpeedGust SpeedPrecipitationEventsConditions
1:00 AM22.0 °F21.0 °F92 %29.98 inSSE (160°)5.8 mph
1:00 AM23.9 °F20.7 °F87 %29.98 inSSE (160°)5.8 mph0.03 in
2:00 AM22.5 °F21.0 °F94 %29.99 inWest (270°)3.5 mph0.02 in
3:00 AM17.6 °F15.8 °F93 %29.98 inNNW (340°)2.3 mph
4:00 AM18.3 °F16.5 °F93 %29.98 inWNW (300°)4.6 mph
5:00 AM17.6 °F15.6 °F92 %29.99 inWest (270°)6.9 mph
6:00 AM14.7 °F12.6 °F91 %30.00 inWest (260°)5.8 mph
7:00 AM17.0 °F15.0 °F87 %30.01 inWest (260°)8.1 mph
7:00 AM17.2 °F14.9 °F91 %30.01 inWest (260°)8.1 mph
8:00 AM18.7 °F16.3 °F91 %30.03 inWest (270°)8.1 mph
9:00 AM22.1 °F18.0 °F84 %30.03 inWest (270°)8.1 mph
10:00 AM23.4 °F20.5 °F89 %30.01 inWest (260°)8.1 mph
11:00 AM23.4 °F19.9 °F87 %30.00 inWSW (250°)12.7 mph
12:00 PM24.1 °F20.5 °F86 %29.96 inSW (220°)10.4 mph
1:00 PM23.0 °F20.0 °F85 %29.94 inSSW (210°)13.8 mph
1:00 PM23.0 °F22.1 °F96 %29.94 inSSW (210°)13.8 mph
2:00 PM23.2 °F20.1 °F88 %29.93 inSW (220°)15.0 mph20.7 mph
3:00 PM23.7 °F21.0 °F89 %29.93 inSW (230°)16.1 mph21.9 mph
4:00 PM24.3 °F22.6 °F94 %29.94 inSW (230°)13.8 mph
5:00 PM24.4 °F21.9 °F90 %29.94 inWSW (240°)13.8 mph
6:00 PM23.5 °F19.9 °F86 %29.96 inWSW (250°)13.8 mph
7:00 PM24.0 °F20.0 °F81 %29.96 inWSW (250°)12.7 mph
7:00 PM23.7 °F20.5 °F87 %29.96 inWSW (250°)12.7 mph
8:00 PM24.8 °F21.4 °F87 %29.99 inWSW (250°)15.0 mph
9:00 PM25.2 °F22.1 °F88 %30.00 inWSW (250°)12.7 mph
10:00 PM24.1 °F20.8 °F87 %30.02 inWSW (250°)11.5 mph
11:00 PM23.9 °F21.4 °F90 %30.02 inWSW (250°)11.5 mph
Hourly data recorded from CXHA, located miles away from Put In Bay, Ohio







STORIES FROM OUR PARTNERS